Flag for Venezuela Weather past 2 weeks in Caracas, Venezuela

Now
81 °F

Passing clouds.


Feels Like: 85 °F
Forecast: 64 / 72 °F
Wind: No wind

Location: Caracas / Maiquetia Aerop. Intl. Simon Bolivar

Current Time: Aug 27, 2014 at 5:10:56 AM

Latest Report: Aug 27, 2014 at 4:30 AM


Visibility: N/A

Pressure: 29.83 "Hg

Humidity: 79%

Dew point: 73 °F

Location of CaracasLocation

Historic Weather in Caracas — Graph

°F

Caracas temperature yesterday

Maximum temperature yesterday: 93 °F (at 12:30 PM)
Minimum temperature yesterday: 79 °F (at 4:30 AM)
Average temperature yesterday: 84 °F

Past Weeks' High & Low Weather Summary

 TemperatureHumidityPressure
High93 °F (Aug 12, 1:30 PM)100% (Aug 16, 5:30 AM)29.98 "Hg (Aug 16, 5:30 AM)
Low72 °F (Aug 16, 5:30 AM)49% (Aug 23, 4:30 PM)29.71 "Hg (Aug 25, 4:30 PM)
Average83 °F75%29.85 "Hg
* Reported Aug 12 3:30 AM — Aug 27 3:30 AM, Caracas, Weather by CustomWeather, © 2014

Note: Actual official high and low records may vary slightly from our data, if they occured in-between our weather recording intervals... More about our weather records

Advertising

Caracas weather history for previous 24 hours

 ConditionsComfort  
Time TempWeatherWind HumidityBarometerVisibility
3:30 AM
Aug 27
81 °FPassing clouds.2 mph79%29.83 "HgN/A
2:30 AM81 °FPassing clouds.3 mph84%29.83 "HgN/A
1:30 AM81 °FPassing clouds.2 mph84%29.83 "HgN/A
12:30 AM82 °FPassing clouds.No wind79%29.86 "HgN/A
11:30 PM
Aug 26
82 °FPassing clouds.No wind79%29.86 "HgN/A
10:30 PM82 °FPassing clouds.No wind79%29.86 "HgN/A
9:30 PM81 °FPassing clouds.No wind84%29.83 "HgN/A
8:30 PM82 °FPassing clouds.2 mph84%29.80 "HgN/A
7:30 PM86 °FPassing clouds.2 mph75%29.77 "HgN/A
6:30 PM84 °FPassing clouds.2 mph79%29.77 "HgN/A
5:30 PM84 °FScattered clouds.2 mph79%29.77 "HgN/A
4:30 PM88 °FScattered clouds.2 mph70%29.77 "HgN/A
3:30 PM93 °FScattered clouds.3 mph59%29.77 "HgN/A
2:30 PMN/AScattered clouds.2 mphN/A29.77 "HgN/A
1:30 PM93 °FScattered clouds.5 mph59%29.80 "HgN/A
12:30 PM93 °FScattered clouds.5 mph59%29.80 "HgN/A
11:30 AM88 °FPassing clouds.5 mph75%29.83 "HgN/A
10:30 AM88 °FPassing clouds.5 mph75%29.83 "HgN/A
9:30 AM84 °FPassing clouds.5 mph74%29.83 "HgN/A
8:30 AM84 °FScattered clouds.No wind70%29.83 "HgN/A
7:30 AM82 °FScattered clouds.No wind74%29.80 "HgN/A
6:30 AM79 °FPassing clouds.2 mph79%29.74 "HgN/A
5:30 AM79 °FPassing clouds.1 mph79%29.74 "HgN/A
Weather by CustomWeather, © 2014

See weather overviewHow to use our weather pages